Погода в Усть-Катуни

Россия / Алтайский край     52°27′23″N   85°10′04″E
темп.,
°C
ветер,
м/с
пор.,
м/с
влажн.,
%
обл.,
%
осадки,
мм/ч
давл.,
гПа
погр.,
м
18 августа, чт
чт1801:00+10юз389389 3.7 1012359
04:00+8зюз37975 0.8 1013161
07:00+7зюз259615 0.8 1014142
10:00+13зюз457010 0.0 1014697
13:00+16зюз455063 0.8 10131528
16:00+17зюз4540100 0.3 10121781
19:00+14сз455178 0.3 1013485
22:00+9сз2289100 0.7 101439
19 августа, пт
пт1901:00+8зюз2389100 0.9 101465
04:00+6юз36955 0.0 1014110
07:00+5з379792 0.1 1015187
10:00+10зюз457554 0.1 1015603
13:00+14зюз565385 0.6 10141659
16:00+15з5545100 0.1 10141921
19:00+14зюз3346100 0.1 10141611
22:00+10зюз347260 0.0 101594
20 августа, сб
сб2001:00+9юз257696 0.0 1016132
04:00+8ююз348467 0.0 101748
07:00+9юз358595 0.1 1018235
10:00+13юз336732 0.0 1019730
13:00+16ююв216010 1.1 10181099
16:00+18всв334029 0.4 10171945
19:00+17в4443100 0.4 1016999
22:00+11в34683 0.0 101849
21 августа, вс
вс2101:00+9всв33775 0.0 101835
04:00+7всв22855 0.0 101810
07:00+7всв22820 0.0 101820
10:00+14всв12534 0.0 1018559
13:00+19св23385 0.0 10171637
16:00+21с433577 0.0 10162266
19:00+18с3543100 0.0 1017388
22:00+15с3454100 0.0 101866
22 августа, пн
пн2201:00+14з116296 0.0 101911
04:00+10з228186 0.0 101914
07:00+12зсз117497 0.0 102035
10:00+16юв115885 0.0 1021661
13:00+16ссв435991 0.0 1021898
16:00+17ссв445852 0.0 1021776
19:00+17ссв555988 0.0 1021808
22:00+13св3776100 0.0 1023268